Weather History for Monticello, AR

Change the Weather History Date:

Wednesday, March 13, 2013

  Actual Average Record
Temperature  
Mean Temperature 50 °F -  
Max Temperature 61 °F 66 °F 87 °F (1967)
Min Temperature 41 °F 43 °F 22 °F (1948)
Degree Days  
Heating Degree Days 14    
Moisture  
Dew Point 25 °F    
Average Humidity 42    
Maximum Humidity 67    
Minimum Humidity 19    
Precipitation  
Precipitation 0.00 in - - ()
Sea Level Pressure  
Sea Level Pressure 30.38 in    
Wind  
Wind Speed 4 mph (North)    
Max Wind Speed 14 mph    
Max Gust Speed 18 mph    
Visibility 10 miles    
Events Rain    
Averages and records for this station are not official NWS values.
T = Trace of Precipitation, MM = Missing Value Source: NWS Daily Summary

Daily Weather History Graph

Daily Weather History Graph

Search for Another Location

Airport:

Trip Planner

Search our weather history database for the weather conditions in past years. The results will help you decide how hot, cold, wet, or windy it might be!

Date:

Astronomy

Mar. 13, 2013 Rise Set
Actual Time 7:19 AM CDT 7:13 PM CDT
Civil Twilight 6:54 AM CDT 7:38 PM CDT
Nautical Twilight 6:26 AM CDT 8:07 PM CDT
Astronomical Twilight 5:57 AM CDT 8:36 PM CDT
Moon 8:06 AM CDT (3/13) 9:21 PM CDT (3/13)
Length of Visible Light 12h 43m
Length of Day
11h 53m
Waxing Crescent, 4% of the Moon is Illuminated
Mar 13
Waxing Crescent
Mar 19
First Quarter
Mar 27
Full
Apr 2
Last Quarter
Apr 10
New

Hourly Weather History & Observations

Time (CDT) Temp. Windchill Dew Point Humidity Pressure Visibility Wind Dir Wind Speed Gust Speed Precip Events Conditions
12:53 AM 48.0 °F - 36.0 °F 63% 30.27 in 10.0 mi WNW 4.6 mph - N/A   Clear
2:53 AM 48.9 °F - 33.1 °F 54% 30.30 in 10.0 mi Calm Calm - N/A   Clear
3:53 AM 46.0 °F - 30.9 °F 56% 30.31 in 10.0 mi Calm Calm - N/A   Clear
4:53 AM 45.0 °F 43.5 °F 30.0 °F 56% 30.33 in 10.0 mi Variable 3.5 mph - N/A   Clear
5:53 AM 44.1 °F 42.5 °F 28.0 °F 53% 30.35 in 10.0 mi Variable 3.5 mph - N/A   Clear
6:53 AM 42.1 °F - 27.0 °F 55% 30.38 in 10.0 mi Calm Calm - 0.00 in   Clear
7:53 AM 41.0 °F 39.0 °F 27.0 °F 57% 30.39 in 10.0 mi Variable 3.5 mph - N/A   Clear
8:53 AM 46.0 °F 42.5 °F 23.0 °F 40% 30.41 in 10.0 mi Variable 6.9 mph - N/A   Clear
9:53 AM 48.9 °F - 19.9 °F 32% 30.43 in 10.0 mi North 9.2 mph 18.4 mph 0.00 in   Clear
10:53 AM 51.1 °F - 18.0 °F 27% 30.44 in 10.0 mi North 8.1 mph - N/A   Clear
11:53 AM 53.1 °F - 17.1 °F 24% 30.45 in 10.0 mi Variable 6.9 mph 16.1 mph N/A   Clear
12:53 PM 55.0 °F - 15.1 °F 21% 30.44 in 10.0 mi NNW 6.9 mph - 0.00 in Rain Light Rain
1:53 PM 55.9 °F - 16.0 °F 21% 30.41 in 10.0 mi Calm Calm - N/A   Clear
2:53 PM 59.0 °F - 18.0 °F 20% 30.40 in 10.0 mi North 8.1 mph - N/A   Clear
3:53 PM 60.1 °F - 17.1 °F 19% 30.39 in 10.0 mi North 8.1 mph - N/A   Clear
4:53 PM 59.0 °F - 19.9 °F 22% 30.37 in 10.0 mi NE 13.8 mph 17.3 mph N/A   Clear
5:53 PM 57.9 °F - 23.0 °F 26% 30.38 in 10.0 mi Variable 4.6 mph - N/A   Clear
6:53 PM 54.0 °F - 23.0 °F 30% 30.38 in 10.0 mi NE 4.6 mph - N/A   Clear
7:53 PM 50.0 °F - 27.0 °F 41% 30.39 in 10.0 mi Calm Calm - N/A   Clear
8:53 PM 45.0 °F - 30.9 °F 58% 30.39 in 10.0 mi Calm Calm - 0.00 in   Clear
9:53 PM 42.1 °F - 30.0 °F 62% 30.40 in 10.0 mi Calm Calm - N/A   Clear
10:53 PM 42.1 °F - 30.9 °F 65% 30.41 in 10.0 mi Calm Calm - N/A   Clear
11:53 PM 41.0 °F - 30.9 °F 67% 30.41 in 10.0 mi Calm Calm - N/A   Clear